M I D A S
Marine Information and Data Acquisition System
Tripno 1308 of the Zeeleeuw from 2007-05-22 11:38:09 to 2007-05-22 13:01:26
Back to CruiseResearch ActivitiesStationsMapUnderway DataData graphs

EquipmentUnitsComments
TimeDGPSUTC
LatitudeDGPSDM.mWGS84
LongitudeDGPSDM.mWGS84
SpeedMeteo Stationm/sRelative wind speed
DirectionMeteo StationdegRelative wind direction
TemperatureMeteo Stationdeg CelciusAir temperature
PressureMeteo StationPaAtmospheric pressure
HumidityMeteo Station%Relative humidity
Missing or incorrect values are displayed as -999
Metereological data collected by the RV Zeeleeuw from 2007-05-22 07:30:53 to 2007-05-22 13:35:04
                                                                                    Next 1000 lines
Time Latitude Longitude Speed Direction Temperature Pressure Humidity
2007-05-22 07:31:03 51°13.6 2°56.097 -999 -999 -999 -999 -999
2007-05-22 07:31:08 51°13.6 2°56.096 -999 -999 -999 -999 -999
2007-05-22 07:31:13 51°13.601 2°56.095 -999 -999 -999 -999 -999
2007-05-22 07:31:18 51°13.601 2°56.093 -999 -999 -999 -999 -999
2007-05-22 07:31:23 51°13.602 2°56.09 -999 -999 -999 -999 -999
2007-05-22 07:31:28 51°13.602 2°56.087 -999 -999 -999 -999 -999
2007-05-22 07:31:33 51°13.604 2°56.083 -999 -999 -999 -999 -999
2007-05-22 07:31:38 51°13.605 2°56.077 -999 -999 -999 -999 -999
2007-05-22 07:31:43 51°13.607 2°56.071 -999 -999 -999 -999 -999
2007-05-22 07:31:48 51°13.609 2°56.065 -999 -999 -999 -999 -999
2007-05-22 07:31:53 51°13.611 2°56.058 -999 -999 -999 -999 -999
2007-05-22 07:31:58 51°13.613 2°56.05 -999 -999 -999 -999 -999
2007-05-22 07:32:03 51°13.616 2°56.041 -999 -999 -999 -999 -999
2007-05-22 07:32:08 51°13.618 2°56.032 -999 -999 -999 -999 -999
2007-05-22 07:32:13 51°13.621 2°56.023 -999 -999 -999 -999 -999
2007-05-22 07:32:18 51°13.624 2°56.013 -999 -999 -999 -999 -999
2007-05-22 07:32:23 51°13.627 2°56.003 -999 -999 -999 -999 -999
2007-05-22 07:32:28 51°13.63 2°55.993 -999 -999 -999 -999 -999
2007-05-22 07:32:33 51°13.633 2°55.982 -999 -999 -999 -999 -999
2007-05-22 07:32:38 51°13.636 2°55.971 -999 -999 -999 -999 -999
2007-05-22 07:32:43 51°13.64 2°55.96 -999 -999 -999 -999 -999
2007-05-22 07:32:48 51°13.643 2°55.949 -999 -999 -999 -999 -999
2007-05-22 07:32:53 51°13.647 2°55.938 -999 -999 -999 -999 -999
2007-05-22 07:32:58 51°13.651 2°55.927 -999 -999 -999 -999 -999
2007-05-22 07:33:03 51°13.654 2°55.917 -999 -999 -999 -999 -999
2007-05-22 07:33:08 51°13.658 2°55.907 -999 -999 -999 -999 -999
2007-05-22 07:33:13 51°13.661 2°55.897 -999 -999 -999 -999 -999
2007-05-22 07:33:18 51°13.664 2°55.888 -999 -999 -999 -999 -999
2007-05-22 07:33:23 51°13.667 2°55.879 -999 -999 -999 -999 -999
2007-05-22 07:33:28 51°13.669 2°55.87 -999 -999 -999 -999 -999
2007-05-22 07:33:33 51°13.672 2°55.862 -999 -999 -999 -999 -999
2007-05-22 07:33:38 51°13.674 2°55.853 -999 -999 -999 -999 -999
2007-05-22 07:33:43 51°13.677 2°55.845 -999 -999 -999 -999 -999
2007-05-22 07:33:48 51°13.679 2°55.837 -999 -999 -999 -999 -999
2007-05-22 07:33:53 51°13.681 2°55.829 -999 -999 -999 -999 -999
2007-05-22 07:33:58 51°13.683 2°55.821 -999 -999 -999 -999 -999
2007-05-22 07:34:03 51°13.684 2°55.814 -999 -999 -999 -999 -999
2007-05-22 07:34:08 51°13.686 2°55.807 -999 -999 -999 -999 -999
2007-05-22 07:34:13 51°13.687 2°55.8 -999 -999 -999 -999 -999
2007-05-22 07:34:18 51°13.689 2°55.793 -999 -999 -999 -999 -999
2007-05-22 07:34:23 51°13.69 2°55.786 -999 -999 -999 -999 -999
2007-05-22 07:34:28 51°13.691 2°55.779 -999 -999 -999 -999 -999
2007-05-22 07:34:33 51°13.692 2°55.773 -999 -999 -999 -999 -999
2007-05-22 07:34:38 51°13.693 2°55.766 -999 -999 -999 -999 -999
2007-05-22 07:34:43 51°13.693 2°55.76 -999 -999 -999 -999 -999
2007-05-22 07:34:48 51°13.694 2°55.754 -999 -999 -999 -999 -999
2007-05-22 07:34:53 51°13.695 2°55.748 -999 -999 -999 -999 -999
2007-05-22 07:34:58 51°13.695 2°55.742 -999 -999 -999 -999 -999
2007-05-22 07:35:03 51°13.695 2°55.736 -999 -999 -999 -999 -999
2007-05-22 07:35:08 51°13.695 2°55.731 -999 -999 -999 -999 -999
2007-05-22 07:35:13 51°13.696 2°55.725 -999 -999 -999 -999 -999
2007-05-22 07:35:18 51°13.696 2°55.721 -999 -999 -999 -999 -999
2007-05-22 07:35:23 51°13.696 2°55.716 -999 -999 -999 -999 -999
2007-05-22 07:35:28 51°13.696 2°55.713 -999 -999 -999 -999 -999
2007-05-22 07:35:33 51°13.696 2°55.71 -999 -999 -999 -999 -999
2007-05-22 07:35:38 51°13.696 2°55.708 -999 -999 -999 -999 -999
2007-05-22 07:35:43 51°13.696 2°55.707 -999 -999 -999 -999 -999
2007-05-22 07:35:48 51°13.697 2°55.707 -999 -999 -999 -999 -999
2007-05-22 07:35:53 51°13.697 2°55.708 -999 -999 -999 -999 -999
2007-05-22 07:35:58 51°13.698 2°55.71 -999 -999 -999 -999 -999
2007-05-22 07:36:03 51°13.699 2°55.712 -999 -999 -999 -999 -999
2007-05-22 07:36:08 51°13.701 2°55.714 -999 -999 -999 -999 -999
2007-05-22 07:36:13 51°13.703 2°55.716 -999 -999 -999 -999 -999
2007-05-22 07:36:18 51°13.705 2°55.719 -999 -999 -999 -999 -999
2007-05-22 07:36:23 51°13.708 2°55.721 -999 -999 -999 -999 -999
2007-05-22 07:36:28 51°13.711 2°55.723 -999 -999 -999 -999 -999
2007-05-22 07:36:33 51°13.714 2°55.724 -999 -999 -999 -999 -999
2007-05-22 07:36:38 51°13.718 2°55.725 -999 -999 -999 -999 -999
2007-05-22 07:36:43 51°13.721 2°55.726 -999 -999 -999 -999 -999
2007-05-22 07:36:48 51°13.724 2°55.726 -999 -999 -999 -999 -999
2007-05-22 07:36:53 51°13.727 2°55.726 -999 -999 -999 -999 -999
2007-05-22 07:36:58 51°13.731 2°55.725 -999 -999 -999 -999 -999
2007-05-22 07:37:03 51°13.734 2°55.725 -999 -999 -999 -999 -999
2007-05-22 07:37:08 51°13.738 2°55.723 -999 -999 -999 -999 -999
2007-05-22 07:37:13 51°13.743 2°55.721 -999 -999 -999 -999 -999
2007-05-22 07:37:18 51°13.748 2°55.719 -999 -999 -999 -999 -999
2007-05-22 07:37:23 51°13.754 2°55.715 -999 -999 -999 -999 -999
2007-05-22 07:37:28 51°13.76 2°55.71 -999 -999 -999 -999 -999
2007-05-22 07:37:33 51°13.767 2°55.704 -999 -999 -999 -999 -999
2007-05-22 07:37:38 51°13.776 2°55.696 -999 -999 -999 -999 -999
2007-05-22 07:37:43 51°13.785 2°55.688 -999 -999 -999 -999 -999
2007-05-22 07:37:48 51°13.794 2°55.679 -999 -999 -999 -999 -999
2007-05-22 07:37:53 51°13.805 2°55.67 -999 -999 -999 -999 -999
2007-05-22 07:37:58 51°13.816 2°55.661 -999 -999 -999 -999 -999
2007-05-22 07:38:03 51°13.828 2°55.65 -999 -999 -999 -999 -999
2007-05-22 07:38:08 51°13.84 2°55.64 -999 -999 -999 -999 -999
2007-05-22 07:38:13 51°13.852 2°55.629 -999 -999 -999 -999 -999
2007-05-22 07:38:18 51°13.866 2°55.619 -999 -999 -999 -999 -999
2007-05-22 07:38:23 51°13.878 2°55.609 -999 -999 -999 -999 -999
2007-05-22 07:38:28 51°13.89 2°55.599 -999 -999 -999 -999 -999
2007-05-22 07:38:33 51°13.903 2°55.589 -999 -999 -999 -999 -999
2007-05-22 07:38:38 51°13.915 2°55.579 -999 -999 -999 -999 -999
2007-05-22 07:38:43 51°13.927 2°55.569 -999 -999 -999 -999 -999
2007-05-22 07:38:48 51°13.94 2°55.56 -999 -999 -999 -999 -999
2007-05-22 07:38:53 51°13.952 2°55.551 -999 -999 -999 -999 -999
2007-05-22 07:38:58 51°13.964 2°55.542 -999 -999 -999 -999 -999
2007-05-22 07:39:03 51°13.976 2°55.533 -999 -999 -999 -999 -999
2007-05-22 07:39:08 51°13.988 2°55.525 -999 -999 -999 -999 -999
2007-05-22 07:39:13 51°13.999 2°55.516 -999 -999 -999 -999 -999
2007-05-22 07:39:18 51°14.01 2°55.508 -999 -999 -999 -999 -999
2007-05-22 07:39:23 51°14.021 2°55.5 -999 -999 -999 -999 -999
2007-05-22 07:39:28 51°14.031 2°55.493 -999 -999 -999 -999 -999
2007-05-22 07:39:33 51°14.04 2°55.486 -999 -999 -999 -999 -999
2007-05-22 07:39:38 51°14.05 2°55.479 -999 -999 -999 -999 -999
2007-05-22 07:39:43 51°14.059 2°55.472 -999 -999 -999 -999 -999
2007-05-22 07:39:48 51°14.068 2°55.466 -999 -999 -999 -999 -999
2007-05-22 07:39:53 51°14.076 2°55.46 -999 -999 -999 -999 -999
2007-05-22 07:39:58 51°14.085 2°55.454 -999 -999 -999 -999 -999
2007-05-22 07:40:03 51°14.093 2°55.449 -999 -999 -999 -999 -999
2007-05-22 07:40:08 51°14.102 2°55.444 -999 -999 -999 -999 -999
2007-05-22 07:40:13 51°14.11 2°55.439 -999 -999 -999 -999 -999
2007-05-22 07:40:18 51°14.118 2°55.434 -999 -999 -999 -999 -999
2007-05-22 07:40:23 51°14.127 2°55.428 -999 -999 -999 -999 -999
2007-05-22 07:40:28 51°14.135 2°55.423 -999 -999 -999 -999 -999
2007-05-22 07:40:33 51°14.144 2°55.417 -999 -999 -999 -999 -999
2007-05-22 07:40:38 51°14.154 2°55.41 -999 -999 -999 -999 -999
2007-05-22 07:40:43 51°14.164 2°55.403 -999 -999 -999 -999 -999
2007-05-22 07:40:48 51°14.174 2°55.395 -999 -999 -999 -999 -999
2007-05-22 07:40:53 51°14.185 2°55.386 -999 -999 -999 -999 -999
2007-05-22 07:40:58 51°14.195 2°55.376 -999 -999 -999 -999 -999
2007-05-22 07:41:03 51°14.206 2°55.365 -999 -999 -999 -999 -999
2007-05-22 07:41:08 51°14.217 2°55.352 -999 -999 -999 -999 -999
2007-05-22 07:41:13 51°14.228 2°55.339 -999 -999 -999 -999 -999
2007-05-22 07:41:18 51°14.24 2°55.325 -999 -999 -999 -999 -999
2007-05-22 07:41:23 51°14.251 2°55.31 -999 -999 -999 -999 -999
2007-05-22 07:41:28 51°14.262 2°55.294 -999 -999 -999 -999 -999
2007-05-22 07:41:33 51°14.274 2°55.277 -999 -999 -999 -999 -999
2007-05-22 07:41:38 51°14.284 2°55.259 -999 -999 -999 -999 -999
2007-05-22 07:41:43 51°14.295 2°55.24 -999 -999 -999 -999 -999
2007-05-22 07:41:48 51°14.305 2°55.22 -999 -999 -999 -999 -999
2007-05-22 07:41:53 51°14.314 2°55.2 -999 -999 -999 -999 -999
2007-05-22 07:41:58 51°14.324 2°55.179 -999 -999 -999 -999 -999
2007-05-22 07:42:03 51°14.332 2°55.158 -999 -999 -999 -999 -999
2007-05-22 07:42:08 51°14.341 2°55.135 -999 -999 -999 -999 -999
2007-05-22 07:42:13 51°14.349 2°55.113 -999 -999 -999 -999 -999
2007-05-22 07:42:18 51°14.357 2°55.089 -999 -999 -999 -999 -999
2007-05-22 07:42:23 51°14.365 2°55.066 -999 -999 -999 -999 -999
2007-05-22 07:42:28 51°14.372 2°55.042 -999 -999 -999 -999 -999
2007-05-22 07:42:33 51°14.379 2°55.017 -999 -999 -999 -999 -999
2007-05-22 07:42:38 51°14.386 2°54.993 -999 -999 -999 -999 -999
2007-05-22 07:42:43 51°14.393 2°54.968 -999 -999 -999 -999 -999
2007-05-22 07:42:48 51°14.399 2°54.942 -999 -999 -999 -999 -999
2007-05-22 07:42:53 51°14.405 2°54.916 -999 -999 -999 -999 -999
2007-05-22 07:42:58 51°14.41 2°54.89 -999 -999 -999 -999 -999
2007-05-22 07:43:03 51°14.414 2°54.863 -999 -999 -999 -999 -999
2007-05-22 07:43:08 51°14.418 2°54.835 -999 -999 -999 -999 -999
2007-05-22 07:43:13 51°14.422 2°54.807 -999 -999 -999 -999 -999
2007-05-22 07:43:18 51°14.426 2°54.779 -999 -999 -999 -999 -999
2007-05-22 07:43:23 51°14.43 2°54.75 -999 -999 -999 -999 -999
2007-05-22 07:43:28 51°14.433 2°54.721 -999 -999 -999 -999 -999
2007-05-22 07:43:33 51°14.437 2°54.692 -999 -999 -999 -999 -999
2007-05-22 07:43:38 51°14.439 2°54.662 -999 -999 -999 -999 -999
2007-05-22 07:43:43 51°14.442 2°54.633 -999 -999 -999 -999 -999
2007-05-22 07:43:48 51°14.445 2°54.603 -999 -999 -999 -999 -999
2007-05-22 07:43:53 51°14.448 2°54.573 -999 -999 -999 -999 -999
2007-05-22 07:43:58 51°14.452 2°54.543 -999 -999 -999 -999 -999
2007-05-22 07:44:03 51°14.455 2°54.513 -999 -999 -999 -999 -999
2007-05-22 07:44:08 51°14.458 2°54.483 -999 -999 -999 -999 -999
2007-05-22 07:44:13 51°14.461 2°54.453 -999 -999 -999 -999 -999
2007-05-22 07:44:18 51°14.464 2°54.423 -999 -999 -999 -999 -999
2007-05-22 07:44:23 51°14.466 2°54.393 -999 -999 -999 -999 -999
2007-05-22 07:44:28 51°14.468 2°54.363 -999 -999 -999 -999 -999
2007-05-22 07:44:33 51°14.468 2°54.333 -999 -999 -999 -999 -999
2007-05-22 07:44:38 51°14.467 2°54.302 -999 -999 -999 -999 -999
2007-05-22 07:44:43 51°14.464 2°54.273 -999 -999 -999 -999 -999
2007-05-22 07:44:48 51°14.459 2°54.245 -999 -999 -999 -999 -999
2007-05-22 07:44:53 51°14.452 2°54.218 -999 -999 -999 -999 -999
2007-05-22 07:44:58 51°14.444 2°54.192 -999 -999 -999 -999 -999
2007-05-22 07:45:03 51°14.436 2°54.165 -999 -999 -999 -999 -999
2007-05-22 07:45:08 51°14.427 2°54.139 -999 -999 -999 -999 -999
2007-05-22 07:45:13 51°14.418 2°54.113 -999 -999 -999 -999 -999
2007-05-22 07:45:18 51°14.409 2°54.087 -999 -999 -999 -999 -999
2007-05-22 07:45:23 51°14.399 2°54.062 -999 -999 -999 -999 -999
2007-05-22 07:45:28 51°14.389 2°54.036 -999 -999 -999 -999 -999
2007-05-22 07:45:33 51°14.378 2°54.012 -999 -999 -999 -999 -999
2007-05-22 07:45:38 51°14.368 2°53.986 -999 -999 -999 -999 -999
2007-05-22 07:45:43 51°14.357 2°53.961 -999 -999 -999 -999 -999
2007-05-22 07:45:48 51°14.346 2°53.936 -999 -999 -999 -999 -999
2007-05-22 07:45:53 51°14.336 2°53.911 -999 -999 -999 -999 -999
2007-05-22 07:45:58 51°14.325 2°53.886 -999 -999 -999 -999 -999
2007-05-22 07:46:03 51°14.314 2°53.861 -999 -999 -999 -999 -999
2007-05-22 07:46:08 51°14.303 2°53.836 -999 -999 -999 -999 -999
2007-05-22 07:46:13 51°14.293 2°53.811 -999 -999 -999 -999 -999
2007-05-22 07:46:18 51°14.282 2°53.786 -999 -999 -999 -999 -999
2007-05-22 07:46:23 51°14.271 2°53.761 -999 -999 -999 -999 -999
2007-05-22 07:46:28 51°14.261 2°53.736 -999 -999 -999 -999 -999
2007-05-22 07:46:33 51°14.25 2°53.711 -999 -999 -999 -999 -999
2007-05-22 07:46:38 51°14.239 2°53.686 -999 -999 -999 -999 -999
2007-05-22 07:46:43 51°14.229 2°53.66 -999 -999 -999 -999 -999
2007-05-22 07:46:48 51°14.219 2°53.636 -999 -999 -999 -999 -999
2007-05-22 07:46:53 51°14.208 2°53.61 -999 -999 -999 -999 -999
2007-05-22 07:46:58 51°14.197 2°53.585 -999 -999 -999 -999 -999
2007-05-22 07:47:03 51°14.187 2°53.56 -999 -999 -999 -999 -999
2007-05-22 07:47:08 51°14.177 2°53.535 -999 -999 -999 -999 -999
2007-05-22 07:47:13 51°14.166 2°53.51 -999 -999 -999 -999 -999
2007-05-22 07:47:18 51°14.155 2°53.485 -999 -999 -999 -999 -999
2007-05-22 07:47:23 51°14.145 2°53.46 -999 -999 -999 -999 -999
2007-05-22 07:47:28 51°14.134 2°53.435 -999 -999 -999 -999 -999
2007-05-22 07:47:33 51°14.123 2°53.411 -999 -999 -999 -999 -999
2007-05-22 07:47:38 51°14.113 2°53.385 -999 -999 -999 -999 -999
2007-05-22 07:47:43 51°14.103 2°53.36 -999 -999 -999 -999 -999
2007-05-22 07:47:48 51°14.092 2°53.335 -999 -999 -999 -999 -999
2007-05-22 07:47:53 51°14.082 2°53.309 -999 -999 -999 -999 -999
2007-05-22 07:47:58 51°14.071 2°53.284 -999 -999 -999 -999 -999
2007-05-22 07:48:03 51°14.061 2°53.259 -999 -999 -999 -999 -999
2007-05-22 07:48:08 51°14.051 2°53.233 -999 -999 -999 -999 -999
2007-05-22 07:48:13 51°14.04 2°53.208 -999 -999 -999 -999 -999
2007-05-22 07:48:18 51°14.03 2°53.183 -999 -999 -999 -999 -999
2007-05-22 07:48:23 51°14.02 2°53.157 -999 -999 -999 -999 -999
2007-05-22 07:48:28 51°14.009 2°53.131 -999 -999 -999 -999 -999
2007-05-22 07:48:33 51°13.999 2°53.105 -999 -999 -999 -999 -999
2007-05-22 07:48:38 51°13.989 2°53.079 -999 -999 -999 -999 -999
2007-05-22 07:48:43 51°13.98 2°53.053 -999 -999 -999 -999 -999
2007-05-22 07:48:48 51°13.969 2°53.028 -999 -999 -999 -999 -999
2007-05-22 07:48:53 51°13.96 2°53.002 -999 -999 -999 -999 -999
2007-05-22 07:48:58 51°13.95 2°52.976 -999 -999 -999 -999 -999
2007-05-22 07:49:03 51°13.939 2°52.951 -999 -999 -999 -999 -999
2007-05-22 07:49:08 51°13.929 2°52.925 -999 -999 -999 -999 -999
2007-05-22 07:49:13 51°13.92 2°52.899 -999 -999 -999 -999 -999
2007-05-22 07:49:18 51°13.909 2°52.874 -999 -999 -999 -999 -999
2007-05-22 07:49:23 51°13.899 2°52.848 -999 -999 -999 -999 -999
2007-05-22 07:49:28 51°13.889 2°52.822 -999 -999 -999 -999 -999
2007-05-22 07:49:33 51°13.879 2°52.797 -999 -999 -999 -999 -999
2007-05-22 07:49:38 51°13.869 2°52.771 -999 -999 -999 -999 -999
2007-05-22 07:49:43 51°13.859 2°52.745 -999 -999 -999 -999 -999
2007-05-22 07:49:48 51°13.848 2°52.72 -999 -999 -999 -999 -999
2007-05-22 07:49:53 51°13.838 2°52.694 -999 -999 -999 -999 -999
2007-05-22 07:49:58 51°13.828 2°52.669 -999 -999 -999 -999 -999
2007-05-22 07:50:03 51°13.818 2°52.644 -999 -999 -999 -999 -999
2007-05-22 07:50:08 51°13.807 2°52.619 -999 -999 -999 -999 -999
2007-05-22 07:50:13 51°13.797 2°52.593 -999 -999 -999 -999 -999
2007-05-22 07:50:18 51°13.786 2°52.568 -999 -999 -999 -999 -999
2007-05-22 07:50:23 51°13.776 2°52.542 -999 -999 -999 -999 -999
2007-05-22 07:50:28 51°13.766 2°52.517 -999 -999 -999 -999 -999
2007-05-22 07:50:33 51°13.755 2°52.491 -999 -999 -999 -999 -999
2007-05-22 07:50:38 51°13.746 2°52.466 -999 -999 -999 -999 -999
2007-05-22 07:50:43 51°13.735 2°52.441 -999 -999 -999 -999 -999
2007-05-22 07:50:48 51°13.725 2°52.415 -999 -999 -999 -999 -999
2007-05-22 07:50:53 51°13.715 2°52.389 -999 -999 -999 -999 -999
2007-05-22 07:50:58 51°13.705 2°52.363 -999 -999 -999 -999 -999
2007-05-22 07:51:03 51°13.695 2°52.338 -999 -999 -999 -999 -999
2007-05-22 07:51:08 51°13.685 2°52.312 -999 -999 -999 -999 -999
2007-05-22 07:51:13 51°13.674 2°52.287 -999 -999 -999 -999 -999
2007-05-22 07:51:18 51°13.665 2°52.261 -999 -999 -999 -999 -999
2007-05-22 07:51:23 51°13.654 2°52.235 -999 -999 -999 -999 -999
2007-05-22 07:51:28 51°13.644 2°52.209 -999 -999 -999 -999 -999
2007-05-22 07:51:33 51°13.634 2°52.184 -999 -999 -999 -999 -999
2007-05-22 07:51:38 51°13.625 2°52.158 -999 -999 -999 -999 -999
2007-05-22 07:51:43 51°13.614 2°52.133 -999 -999 -999 -999 -999
2007-05-22 07:51:48 51°13.605 2°52.107 -999 -999 -999 -999 -999
2007-05-22 07:51:53 51°13.595 2°52.081 -999 -999 -999 -999 -999
2007-05-22 07:51:58 51°13.585 2°52.055 -999 -999 -999 -999 -999
2007-05-22 07:52:03 51°13.575 2°52.029 -999 -999 -999 -999 -999
2007-05-22 07:52:08 51°13.565 2°52.004 -999 -999 -999 -999 -999
2007-05-22 07:52:13 51°13.555 2°51.978 -999 -999 -999 -999 -999
2007-05-22 07:52:18 51°13.544 2°51.953 -999 -999 -999 -999 -999
2007-05-22 07:52:23 51°13.534 2°51.927 -999 -999 -999 -999 -999
2007-05-22 07:52:28 51°13.524 2°51.901 -999 -999 -999 -999 -999
2007-05-22 07:52:33 51°13.514 2°51.876 -999 -999 -999 -999 -999
2007-05-22 07:52:38 51°13.504 2°51.851 -999 -999 -999 -999 -999
2007-05-22 07:52:43 51°13.494 2°51.825 -999 -999 -999 -999 -999
2007-05-22 07:52:48 51°13.483 2°51.799 -999 -999 -999 -999 -999
2007-05-22 07:52:53 51°13.474 2°51.773 -999 -999 -999 -999 -999
2007-05-22 07:52:58 51°13.463 2°51.748 -999 -999 -999 -999 -999
2007-05-22 07:53:03 51°13.454 2°51.722 -999 -999 -999 -999 -999
2007-05-22 07:53:08 51°13.443 2°51.697 -999 -999 -999 -999 -999
2007-05-22 07:53:13 51°13.433 2°51.671 -999 -999 -999 -999 -999
2007-05-22 07:53:18 51°13.423 2°51.645 -999 -999 -999 -999 -999
2007-05-22 07:53:23 51°13.413 2°51.62 -999 -999 -999 -999 -999
2007-05-22 07:53:28 51°13.402 2°51.594 -999 -999 -999 -999 -999
2007-05-22 07:53:33 51°13.393 2°51.568 -999 -999 -999 -999 -999
2007-05-22 07:53:38 51°13.382 2°51.543 -999 -999 -999 -999 -999
2007-05-22 07:53:43 51°13.372 2°51.517 -999 -999 -999 -999 -999
2007-05-22 07:53:48 51°13.362 2°51.491 -999 -999 -999 -999 -999
2007-05-22 07:53:53 51°13.352 2°51.465 -999 -999 -999 -999 -999
2007-05-22 07:53:58 51°13.341 2°51.44 -999 -999 -999 -999 -999
2007-05-22 07:54:03 51°13.332 2°51.413 -999 -999 -999 -999 -999
2007-05-22 07:54:08 51°13.321 2°51.388 -999 -999 -999 -999 -999
2007-05-22 07:54:13 51°13.312 2°51.361 -999 -999 -999 -999 -999
2007-05-22 07:54:18 51°13.302 2°51.336 -999 -999 -999 -999 -999
2007-05-22 07:54:23 51°13.292 2°51.31 -999 -999 -999 -999 -999
2007-05-22 07:54:28 51°13.282 2°51.284 -999 -999 -999 -999 -999
2007-05-22 07:54:33 51°13.272 2°51.258 -999 -999 -999 -999 -999
2007-05-22 07:54:38 51°13.262 2°51.232 -999 -999 -999 -999 -999
2007-05-22 07:54:43 51°13.252 2°51.206 -999 -999 -999 -999 -999
2007-05-22 07:54:48 51°13.241 2°51.181 -999 -999 -999 -999 -999
2007-05-22 07:54:53 51°13.231 2°51.155 -999 -999 -999 -999 -999
2007-05-22 07:54:58 51°13.221 2°51.13 -999 -999 -999 -999 -999
2007-05-22 07:55:03 51°13.211 2°51.104 -999 -999 -999 -999 -999
2007-05-22 07:55:08 51°13.2 2°51.078 -999 -999 -999 -999 -999
2007-05-22 07:55:13 51°13.191 2°51.052 -999 -999 -999 -999 -999
2007-05-22 07:55:18 51°13.18 2°51.027 -999 -999 -999 -999 -999
2007-05-22 07:55:23 51°13.17 2°51.001 -999 -999 -999 -999 -999
2007-05-22 07:55:28 51°13.16 2°50.975 -999 -999 -999 -999 -999
2007-05-22 07:55:33 51°13.15 2°50.949 -999 -999 -999 -999 -999
2007-05-22 07:55:38 51°13.14 2°50.924 -999 -999 -999 -999 -999
2007-05-22 07:55:43 51°13.13 2°50.898 -999 -999 -999 -999 -999
2007-05-22 07:55:48 51°13.12 2°50.872 -999 -999 -999 -999 -999
2007-05-22 07:55:53 51°13.11 2°50.846 -999 -999 -999 -999 -999
2007-05-22 07:55:58 51°13.099 2°50.821 -999 -999 -999 -999 -999
2007-05-22 07:56:03 51°13.089 2°50.795 -999 -999 -999 -999 -999
2007-05-22 07:56:08 51°13.079 2°50.769 -999 -999 -999 -999 -999
2007-05-22 07:56:13 51°13.069 2°50.744 -999 -999 -999 -999 -999
2007-05-22 07:56:18 51°13.059 2°50.718 -999 -999 -999 -999 -999
2007-05-22 07:56:23 51°13.049 2°50.692 -999 -999 -999 -999 -999
2007-05-22 07:56:28 51°13.039 2°50.666 -999 -999 -999 -999 -999
2007-05-22 07:56:33 51°13.029 2°50.64 -999 -999 -999 -999 -999
2007-05-22 07:56:38 51°13.019 2°50.614 -999 -999 -999 -999 -999
2007-05-22 07:56:43 51°13.009 2°50.589 -999 -999 -999 -999 -999
2007-05-22 07:56:48 51°12.999 2°50.563 -999 -999 -999 -999 -999
2007-05-22 07:56:53 51°12.989 2°50.537 -999 -999 -999 -999 -999
2007-05-22 07:56:58 51°12.978 2°50.511 -999 -999 -999 -999 -999
2007-05-22 07:57:03 51°12.969 2°50.484 -999 -999 -999 -999 -999
2007-05-22 07:57:08 51°12.958 2°50.459 -999 -999 -999 -999 -999
2007-05-22 07:57:13 51°12.948 2°50.433 -999 -999 -999 -999 -999
2007-05-22 07:57:18 51°12.938 2°50.407 -999 -999 -999 -999 -999
2007-05-22 07:57:23 51°12.928 2°50.381 -999 -999 -999 -999 -999
2007-05-22 07:57:28 51°12.917 2°50.355 -999 -999 -999 -999 -999
2007-05-22 07:57:33 51°12.907 2°50.329 -999 -999 -999 -999 -999
2007-05-22 07:57:38 51°12.897 2°50.303 -999 -999 -999 -999 -999
2007-05-22 07:57:43 51°12.887 2°50.277 -999 -999 -999 -999 -999
2007-05-22 07:57:48 51°12.877 2°50.251 -999 -999 -999 -999 -999
2007-05-22 07:57:53 51°12.866 2°50.225 -999 -999 -999 -999 -999
2007-05-22 07:57:58 51°12.856 2°50.199 -999 -999 -999 -999 -999
2007-05-22 07:58:03 51°12.846 2°50.173 -999 -999 -999 -999 -999
2007-05-22 07:58:08 51°12.836 2°50.147 -999 -999 -999 -999 -999
2007-05-22 07:58:13 51°12.826 2°50.121 -999 -999 -999 -999 -999
2007-05-22 07:58:18 51°12.816 2°50.095 -999 -999 -999 -999 -999
2007-05-22 07:58:23 51°12.806 2°50.069 -999 -999 -999 -999 -999
2007-05-22 07:58:28 51°12.795 2°50.042 -999 -999 -999 -999 -999
2007-05-22 07:58:33 51°12.786 2°50.016 -999 -999 -999 -999 -999
2007-05-22 07:58:38 51°12.775 2°49.99 -999 -999 -999 -999 -999
2007-05-22 07:58:43 51°12.766 2°49.963 -999 -999 -999 -999 -999
2007-05-22 07:58:48 51°12.755 2°49.937 -999 -999 -999 -999 -999
2007-05-22 07:58:53 51°12.746 2°49.911 -999 -999 -999 -999 -999
2007-05-22 07:58:58 51°12.735 2°49.886 -999 -999 -999 -999 -999
2007-05-22 07:59:03 51°12.725 2°49.859 -999 -999 -999 -999 -999
2007-05-22 07:59:08 51°12.714 2°49.833 -999 -999 -999 -999 -999
2007-05-22 07:59:13 51°12.704 2°49.807 -999 -999 -999 -999 -999
2007-05-22 07:59:18 51°12.694 2°49.781 -999 -999 -999 -999 -999
2007-05-22 07:59:23 51°12.684 2°49.755 -999 -999 -999 -999 -999
2007-05-22 07:59:28 51°12.674 2°49.729 -999 -999 -999 -999 -999
2007-05-22 07:59:33 51°12.663 2°49.703 -999 -999 -999 -999 -999
2007-05-22 07:59:38 51°12.654 2°49.676 -999 -999 -999 -999 -999
2007-05-22 07:59:43 51°12.643 2°49.65 -999 -999 -999 -999 -999
2007-05-22 07:59:48 51°12.634 2°49.623 -999 -999 -999 -999 -999
2007-05-22 07:59:53 51°12.623 2°49.598 -999 -999 -999 -999 -999
2007-05-22 07:59:58 51°12.614 2°49.571 -999 -999 -999 -999 -999
2007-05-22 08:00:03 51°12.603 2°49.545 -999 -999 -999 -999 -999
2007-05-22 08:00:08 51°12.594 2°49.519 -999 -999 -999 -999 -999
2007-05-22 08:00:13 51°12.582 2°49.494 -999 -999 -999 -999 -999
2007-05-22 08:00:18 51°12.573 2°49.467 -999 -999 -999 -999 -999
2007-05-22 08:00:23 51°12.562 2°49.442 -999 -999 -999 -999 -999
2007-05-22 08:00:28 51°12.552 2°49.416 -999 -999 -999 -999 -999
2007-05-22 08:00:33 51°12.541 2°49.39 -999 -999 -999 -999 -999
2007-05-22 08:00:38 51°12.531 2°49.364 -999 -999 -999 -999 -999
2007-05-22 08:00:43 51°12.521 2°49.338 -999 -999 -999 -999 -999
2007-05-22 08:00:48 51°12.511 2°49.312 -999 -999 -999 -999 -999
2007-05-22 08:00:53 51°12.501 2°49.286 -999 -999 -999 -999 -999
2007-05-22 08:00:58 51°12.491 2°49.26 -999 -999 -999 -999 -999
2007-05-22 08:01:03 51°12.481 2°49.233 -999 -999 -999 -999 -999
2007-05-22 08:01:08 51°12.471 2°49.207 -999 -999 -999 -999 -999
2007-05-22 08:01:13 51°12.46 2°49.182 -999 -999 -999 -999 -999
2007-05-22 08:01:18 51°12.451 2°49.155 -999 -999 -999 -999 -999
2007-05-22 08:01:23 51°12.44 2°49.13 -999 -999 -999 -999 -999
2007-05-22 08:01:28 51°12.43 2°49.103 -999 -999 -999 -999 -999
2007-05-22 08:01:33 51°12.419 2°49.078 -999 -999 -999 -999 -999
2007-05-22 08:01:38 51°12.41 2°49.051 -999 -999 -999 -999 -999
2007-05-22 08:01:43 51°12.399 2°49.025 -999 -999 -999 -999 -999
2007-05-22 08:01:48 51°12.389 2°48.998 -999 -999 -999 -999 -999
2007-05-22 08:01:53 51°12.379 2°48.972 -999 -999 -999 -999 -999
2007-05-22 08:01:58 51°12.369 2°48.945 -999 -999 -999 -999 -999
2007-05-22 08:02:03 51°12.359 2°48.918 -999 -999 -999 -999 -999
2007-05-22 08:02:08 51°12.349 2°48.893 -999 -999 -999 -999 -999
2007-05-22 08:02:13 51°12.339 2°48.866 -999 -999 -999 -999 -999
2007-05-22 08:02:18 51°12.328 2°48.842 -999 -999 -999 -999 -999
2007-05-22 08:02:23 51°12.319 2°48.817 -999 -999 -999 -999 -999
2007-05-22 08:02:28 51°12.309 2°48.794 -999 -999 -999 -999 -999
2007-05-22 08:02:33 51°12.3 2°48.77 -999 -999 -999 -999 -999
2007-05-22 08:02:38 51°12.29 2°48.748 -999 -999 -999 -999 -999
2007-05-22 08:02:43 51°12.283 2°48.724 -999 -999 -999 -999 -999
2007-05-22 08:02:48 51°12.277 2°48.699 -999 -999 -999 -999 -999
2007-05-22 08:02:53 51°12.271 2°48.676 -999 -999 -999 -999 -999
2007-05-22 08:02:58 51°12.264 2°48.653 -999 -999 -999 -999 -999
2007-05-22 08:03:03 51°12.256 2°48.633 -999 -999 -999 -999 -999
2007-05-22 08:03:08 51°12.247 2°48.616 -999 -999 -999 -999 -999
2007-05-22 08:03:13 51°12.237 2°48.603 -999 -999 -999 -999 -999
2007-05-22 08:03:18 51°12.227 2°48.593 -999 -999 -999 -999 -999
2007-05-22 08:03:23 51°12.216 2°48.586 -999 -999 -999 -999 -999
2007-05-22 08:03:28 51°12.206 2°48.582 -999 -999 -999 -999 -999
2007-05-22 08:03:33 51°12.196 2°48.58 -999 -999 -999 -999 -999
2007-05-22 08:03:38 51°12.187 2°48.581 -999 -999 -999 -999 -999
2007-05-22 08:03:43 51°12.178 2°48.583 -999 -999 -999 -999 -999
2007-05-22 08:03:48 51°12.17 2°48.588 -999 -999 -999 -999 -999
2007-05-22 08:03:53 51°12.162 2°48.595 -999 -999 -999 -999 -999
2007-05-22 08:03:58 51°12.156 2°48.602 -999 -999 -999 -999 -999
2007-05-22 08:04:03 51°12.151 2°48.611 -999 -999 -999 -999 -999
2007-05-22 08:04:08 51°12.147 2°48.621 -999 -999 -999 -999 -999
2007-05-22 08:04:13 51°12.144 2°48.632 -999 -999 -999 -999 -999
2007-05-22 08:04:18 51°12.142 2°48.642 -999 -999 -999 -999 -999
2007-05-22 08:04:23 51°12.142 2°48.654 -999 -999 -999 -999 -999
2007-05-22 08:04:28 51°12.143 2°48.664 -999 -999 -999 -999 -999
2007-05-22 08:04:33 51°12.145 2°48.675 -999 -999 -999 -999 -999
2007-05-22 08:04:38 51°12.148 2°48.684 -999 -999 -999 -999 -999
2007-05-22 08:04:43 51°12.152 2°48.692 -999 -999 -999 -999 -999
2007-05-22 08:04:48 51°12.157 2°48.701 -999 -999 -999 -999 -999
2007-05-22 08:04:53 51°12.163 2°48.709 -999 -999 -999 -999 -999
2007-05-22 08:04:58 51°12.171 2°48.718 -999 -999 -999 -999 -999
2007-05-22 08:05:03 51°12.179 2°48.728 -999 -999 -999 -999 -999
2007-05-22 08:05:08 51°12.189 2°48.739 -999 -999 -999 -999 -999
2007-05-22 08:05:13 51°12.199 2°48.751 -999 -999 -999 -999 -999
2007-05-22 08:05:18 51°12.21 2°48.764 -999 -999 -999 -999 -999
2007-05-22 08:05:23 51°12.22 2°48.777 -999 -999 -999 -999 -999
2007-05-22 08:05:28 51°12.231 2°48.792 -999 -999 -999 -999 -999
2007-05-22 08:05:33 51°12.243 2°48.806 -999 -999 -999 -999 -999
2007-05-22 08:05:38 51°12.254 2°48.822 -999 -999 -999 -999 -999
2007-05-22 08:05:43 51°12.265 2°48.837 -999 -999 -999 -999 -999
2007-05-22 08:05:48 51°12.277 2°48.853 -999 -999 -999 -999 -999
2007-05-22 08:05:53 51°12.289 2°48.87 -999 -999 -999 -999 -999
2007-05-22 08:05:58 51°12.3 2°48.887 -999 -999 -999 -999 -999
2007-05-22 08:06:03 51°12.312 2°48.904 -999 -999 -999 -999 -999
2007-05-22 08:06:08 51°12.324 2°48.921 -999 -999 -999 -999 -999
2007-05-22 08:06:13 51°12.336 2°48.94 -999 -999 -999 -999 -999
2007-05-22 08:06:18 51°12.347 2°48.959 -999 -999 -999 -999 -999
2007-05-22 08:06:23 51°12.359 2°48.978 -999 -999 -999 -999 -999
2007-05-22 08:06:28 51°12.37 2°48.998 -999 -999 -999 -999 -999
2007-05-22 08:06:33 51°12.381 2°49.017 -999 -999 -999 -999 -999
2007-05-22 08:06:38 51°12.392 2°49.037 -999 -999 -999 -999 -999
2007-05-22 08:06:43 51°12.403 2°49.057 -999 -999 -999 -999 -999
2007-05-22 08:06:48 51°12.414 2°49.077 -999 -999 -999 -999 -999
2007-05-22 08:06:53 51°12.425 2°49.098 -999 -999 -999 -999 -999
2007-05-22 08:06:58 51°12.436 2°49.118 -999 -999 -999 -999 -999
2007-05-22 08:07:03 51°12.448 2°49.138 -999 -999 -999 -999 -999
2007-05-22 08:07:08 51°12.459 2°49.157 -999 -999 -999 -999 -999
2007-05-22 08:07:13 51°12.47 2°49.178 -999 -999 -999 -999 -999
2007-05-22 08:07:18 51°12.481 2°49.197 -999 -999 -999 -999 -999
2007-05-22 08:07:23 51°12.493 2°49.218 -999 -999 -999 -999 -999
2007-05-22 08:07:28 51°12.504 2°49.237 -999 -999 -999 -999 -999
2007-05-22 08:07:33 51°12.516 2°49.257 -999 -999 -999 -999 -999
2007-05-22 08:07:38 51°12.527 2°49.277 -999 -999 -999 -999 -999
2007-05-22 08:07:43 51°12.539 2°49.297 -999 -999 -999 -999 -999
2007-05-22 08:07:48 51°12.55 2°49.317 -999 -999 -999 -999 -999
2007-05-22 08:07:53 51°12.562 2°49.337 -999 -999 -999 -999 -999
2007-05-22 08:07:58 51°12.573 2°49.357 -999 -999 -999 -999 -999
2007-05-22 08:08:03 51°12.584 2°49.377 -999 -999 -999 -999 -999
2007-05-22 08:08:08 51°12.596 2°49.397 -999 -999 -999 -999 -999
2007-05-22 08:08:13 51°12.607 2°49.417 -999 -999 -999 -999 -999
2007-05-22 08:08:18 51°12.618 2°49.438 -999 -999 -999 -999 -999
2007-05-22 08:08:23 51°12.63 2°49.458 -999 -999 -999 -999 -999
2007-05-22 08:08:28 51°12.641 2°49.478 -999 -999 -999 -999 -999
2007-05-22 08:08:33 51°12.653 2°49.497 -999 -999 -999 -999 -999
2007-05-22 08:08:38 51°12.664 2°49.518 -999 -999 -999 -999 -999
2007-05-22 08:08:43 51°12.675 2°49.538 -999 -999 -999 -999 -999
2007-05-22 08:08:48 51°12.686 2°49.558 -999 -999 -999 -999 -999
2007-05-22 08:08:53 51°12.697 2°49.578 -999 -999 -999 -999 -999
2007-05-22 08:08:58 51°12.709 2°49.599 -999 -999 -999 -999 -999
2007-05-22 08:09:03 51°12.72 2°49.619 -999 -999 -999 -999 -999
2007-05-22 08:09:08 51°12.731 2°49.639 -999 -999 -999 -999 -999
2007-05-22 08:09:13 51°12.743 2°49.659 -999 -999 -999 -999 -999
2007-05-22 08:09:18 51°12.753 2°49.679 -999 -999 -999 -999 -999
2007-05-22 08:09:23 51°12.764 2°49.7 -999 -999 -999 -999 -999
2007-05-22 08:09:28 51°12.775 2°49.72 -999 -999 -999 -999 -999
2007-05-22 08:09:33 51°12.786 2°49.74 -999 -999 -999 -999 -999
2007-05-22 08:09:38 51°12.798 2°49.76 -999 -999 -999 -999 -999
2007-05-22 08:09:43 51°12.809 2°49.781 -999 -999 -999 -999 -999
2007-05-22 08:09:48 51°12.82 2°49.801 -999 -999 -999 -999 -999
2007-05-22 08:09:53 51°12.832 2°49.821 -999 -999 -999 -999 -999
2007-05-22 08:09:58 51°12.843 2°49.841 -999 -999 -999 -999 -999
2007-05-22 08:10:03 51°12.854 2°49.862 -999 -999 -999 -999 -999
2007-05-22 08:10:08 51°12.865 2°49.882 -999 -999 -999 -999 -999
2007-05-22 08:10:13 51°12.876 2°49.903 -999 -999 -999 -999 -999
2007-05-22 08:10:18 51°12.887 2°49.924 -999 -999 -999 -999 -999
2007-05-22 08:10:23 51°12.897 2°49.945 -999 -999 -999 -999 -999
2007-05-22 08:10:28 51°12.908 2°49.966 -999 -999 -999 -999 -999
2007-05-22 08:10:33 51°12.919 2°49.988 -999 -999 -999 -999 -999
2007-05-22 08:10:38 51°12.929 2°50.009 -999 -999 -999 -999 -999
2007-05-22 08:10:43 51°12.94 2°50.03 -999 -999 -999 -999 -999
2007-05-22 08:10:48 51°12.951 2°50.051 -999 -999 -999 -999 -999
2007-05-22 08:10:53 51°12.962 2°50.072 -999 -999 -999 -999 -999
2007-05-22 08:10:58 51°12.973 2°50.093 -999 -999 -999 -999 -999
2007-05-22 08:11:03 51°12.984 2°50.113 -999 -999 -999 -999 -999
2007-05-22 08:11:08 51°12.995 2°50.134 -999 -999 -999 -999 -999
2007-05-22 08:11:13 51°13.006 2°50.155 -999 -999 -999 -999 -999
2007-05-22 08:11:18 51°13.017 2°50.176 -999 -999 -999 -999 -999
2007-05-22 08:11:23 51°13.028 2°50.197 -999 -999 -999 -999 -999
2007-05-22 08:11:28 51°13.038 2°50.218 -999 -999 -999 -999 -999
2007-05-22 08:11:33 51°13.049 2°50.239 -999 -999 -999 -999 -999
2007-05-22 08:11:38 51°13.06 2°50.26 -999 -999 -999 -999 -999
2007-05-22 08:11:43 51°13.071 2°50.281 -999 -999 -999 -999 -999
2007-05-22 08:11:48 51°13.081 2°50.302 -999 -999 -999 -999 -999
2007-05-22 08:11:53 51°13.092 2°50.323 -999 -999 -999 -999 -999
2007-05-22 08:11:58 51°13.103 2°50.344 -999 -999 -999 -999 -999
2007-05-22 08:12:03 51°13.113 2°50.365 -999 -999 -999 -999 -999
2007-05-22 08:12:08 51°13.124 2°50.387 -999 -999 -999 -999 -999
2007-05-22 08:12:13 51°13.133 2°50.409 -999 -999 -999 -999 -999
2007-05-22 08:12:18 51°13.143 2°50.431 -999 -999 -999 -999 -999
2007-05-22 08:12:23 51°13.151 2°50.454 -999 -999 -999 -999 -999
2007-05-22 08:12:28 51°13.16 2°50.478 -999 -999 -999 -999 -999
2007-05-22 08:12:33 51°13.167 2°50.502 -999 -999 -999 -999 -999
2007-05-22 08:12:38 51°13.175 2°50.526 -999 -999 -999 -999 -999
2007-05-22 08:12:43 51°13.182 2°50.55 -999 -999 -999 -999 -999
2007-05-22 08:12:48 51°13.19 2°50.574 -999 -999 -999 -999 -999
2007-05-22 08:12:53 51°13.197 2°50.598 -999 -999 -999 -999 -999
2007-05-22 08:12:58 51°13.204 2°50.622 -999 -999 -999 -999 -999
2007-05-22 08:13:03 51°13.213 2°50.645 -999 -999 -999 -999 -999
2007-05-22 08:13:08 51°13.221 2°50.669 -999 -999 -999 -999 -999
2007-05-22 08:13:13 51°13.229 2°50.692 -999 -999 -999 -999 -999
2007-05-22 08:13:18 51°13.237 2°50.715 -999 -999 -999 -999 -999
2007-05-22 08:13:23 51°13.245 2°50.739 -999 -999 -999 -999 -999
2007-05-22 08:13:28 51°13.254 2°50.762 -999 -999 -999 -999 -999
2007-05-22 08:13:33 51°13.262 2°50.785 -999 -999 -999 -999 -999
2007-05-22 08:13:38 51°13.27 2°50.809 -999 -999 -999 -999 -999
2007-05-22 08:13:43 51°13.278 2°50.832 -999 -999 -999 -999 -999
2007-05-22 08:13:48 51°13.286 2°50.856 -999 -999 -999 -999 -999
2007-05-22 08:13:53 51°13.294 2°50.879 -999 -999 -999 -999 -999
2007-05-22 08:13:58 51°13.303 2°50.902 -999 -999 -999 -999 -999
2007-05-22 08:14:03 51°13.311 2°50.926 -999 -999 -999 -999 -999
2007-05-22 08:14:08 51°13.319 2°50.949 -999 -999 -999 -999 -999
2007-05-22 08:14:13 51°13.327 2°50.972 -999 -999 -999 -999 -999
2007-05-22 08:14:18 51°13.336 2°50.995 -999 -999 -999 -999 -999
2007-05-22 08:14:23 51°13.344 2°51.019 -999 -999 -999 -999 -999
2007-05-22 08:14:28 51°13.353 2°51.041 -999 -999 -999 -999 -999
2007-05-22 08:14:33 51°13.362 2°51.064 -999 -999 -999 -999 -999
2007-05-22 08:14:38 51°13.372 2°51.086 -999 -999 -999 -999 -999
2007-05-22 08:14:43 51°13.381 2°51.109 -999 -999 -999 -999 -999
2007-05-22 08:14:48 51°13.391 2°51.13 -999 -999 -999 -999 -999
2007-05-22 08:14:53 51°13.4 2°51.153 -999 -999 -999 -999 -999
2007-05-22 08:14:58 51°13.41 2°51.175 -999 -999 -999 -999 -999
2007-05-22 08:15:03 51°13.419 2°51.197 -999 -999 -999 -999 -999
2007-05-22 08:15:08 51°13.429 2°51.219 -999 -999 -999 -999 -999
2007-05-22 08:15:13 51°13.438 2°51.242 -999 -999 -999 -999 -999
2007-05-22 08:15:18 51°13.448 2°51.264 -999 -999 -999 -999 -999
2007-05-22 08:15:23 51°13.457 2°51.286 -999 -999 -999 -999 -999
2007-05-22 08:15:28 51°13.466 2°51.309 -999 -999 -999 -999 -999
2007-05-22 08:15:33 51°13.476 2°51.331 -999 -999 -999 -999 -999
2007-05-22 08:15:38 51°13.485 2°51.354 -999 -999 -999 -999 -999
2007-05-22 08:15:43 51°13.495 2°51.376 -999 -999 -999 -999 -999
2007-05-22 08:15:48 51°13.504 2°51.399 -999 -999 -999 -999 -999
2007-05-22 08:15:53 51°13.514 2°51.421 -999 -999 -999 -999 -999
2007-05-22 08:15:58 51°13.522 2°51.444 -999 -999 -999 -999 -999
2007-05-22 08:16:03 51°13.531 2°51.467 -999 -999 -999 -999 -999
2007-05-22 08:16:08 51°13.54 2°51.49 -999 -999 -999 -999 -999
2007-05-22 08:16:13 51°13.549 2°51.513 -999 -999 -999 -999 -999
2007-05-22 08:16:18 51°13.557 2°51.536 -999 -999 -999 -999 -999
2007-05-22 08:16:23 51°13.566 2°51.56 -999 -999 -999 -999 -999
2007-05-22 08:16:28 51°13.574 2°51.583 -999 -999 -999 -999 -999
2007-05-22 08:16:33 51°13.582 2°51.607 -999 -999 -999 -999 -999
2007-05-22 08:16:38 51°13.591 2°51.63 -999 -999 -999 -999 -999
2007-05-22 08:16:43 51°13.599 2°51.654 -999 -999 -999 -999 -999
2007-05-22 08:16:48 51°13.608 2°51.677 -999 -999 -999 -999 -999
2007-05-22 08:16:53 51°13.616 2°51.7 -999 -999 -999 -999 -999
2007-05-22 08:16:58 51°13.625 2°51.723 -999 -999 -999 -999 -999
2007-05-22 08:17:03 51°13.633 2°51.747 -999 -999 -999 -999 -999
2007-05-22 08:17:08 51°13.641 2°51.77 -999 -999 -999 -999 -999
2007-05-22 08:17:13 51°13.65 2°51.794 -999 -999 -999 -999 -999
2007-05-22 08:17:18 51°13.658 2°51.817 -999 -999 -999 -999 -999
2007-05-22 08:17:23 51°13.666 2°51.84 -999 -999 -999 -999 -999
2007-05-22 08:17:28 51°13.675 2°51.864 -999 -999 -999 -999 -999
2007-05-22 08:17:33 51°13.683 2°51.887 -999 -999 -999 -999 -999
2007-05-22 08:17:38 51°13.692 2°51.91 -999 -999 -999 -999 -999
2007-05-22 08:17:43 51°13.7 2°51.933 -999 -999 -999 -999 -999
2007-05-22 08:17:48 51°13.708 2°51.957 -999 -999 -999 -999 -999
2007-05-22 08:17:53 51°13.716 2°51.98 -999 -999 -999 -999 -999
2007-05-22 08:17:58 51°13.724 2°52.004 -999 -999 -999 -999 -999
2007-05-22 08:18:03 51°13.733 2°52.027 -999 -999 -999 -999 -999
2007-05-22 08:18:08 51°13.741 2°52.05 -999 -999 -999 -999 -999
2007-05-22 08:18:13 51°13.749 2°52.074 -999 -999 -999 -999 -999
2007-05-22 08:18:18 51°13.757 2°52.097 -999 -999 -999 -999 -999
2007-05-22 08:18:23 51°13.766 2°52.121 -999 -999 -999 -999 -999
2007-05-22 08:18:28 51°13.774 2°52.144 -999 -999 -999 -999 -999
2007-05-22 08:18:33 51°13.782 2°52.167 -999 -999 -999 -999 -999
2007-05-22 08:18:38 51°13.791 2°52.191 -999 -999 -999 -999 -999
2007-05-22 08:18:43 51°13.8 2°52.214 -999 -999 -999 -999 -999
2007-05-22 08:18:48 51°13.808 2°52.237 -999 -999 -999 -999 -999
2007-05-22 08:18:53 51°13.816 2°52.261 -999 -999 -999 -999 -999
2007-05-22 08:18:58 51°13.824 2°52.284 -999 -999 -999 -999 -999
2007-05-22 08:19:03 51°13.833 2°52.307 -999 -999 -999 -999 -999
2007-05-22 08:19:08 51°13.841 2°52.331 -999 -999 -999 -999 -999
2007-05-22 08:19:13 51°13.849 2°52.354 -999 -999 -999 -999 -999
2007-05-22 08:19:18 51°13.858 2°52.377 -999 -999 -999 -999 -999
2007-05-22 08:19:23 51°13.866 2°52.401 -999 -999 -999 -999 -999
2007-05-22 08:19:28 51°13.875 2°52.424 -999 -999 -999 -999 -999
2007-05-22 08:19:33 51°13.883 2°52.448 -999 -999 -999 -999 -999
2007-05-22 08:19:38 51°13.891 2°52.471 -999 -999 -999 -999 -999
2007-05-22 08:19:43 51°13.9 2°52.494 -999 -999 -999 -999 -999
2007-05-22 08:19:48 51°13.908 2°52.518 -999 -999 -999 -999 -999
2007-05-22 08:19:53 51°13.917 2°52.541 -999 -999 -999 -999 -999
2007-05-22 08:19:58 51°13.925 2°52.565 -999 -999 -999 -999 -999
2007-05-22 08:20:03 51°13.933 2°52.588 -999 -999 -999 -999 -999
2007-05-22 08:20:08 51°13.941 2°52.611 -999 -999 -999 -999 -999
2007-05-22 08:20:13 51°13.95 2°52.634 -999 -999 -999 -999 -999
2007-05-22 08:20:18 51°13.958 2°52.658 -999 -999 -999 -999 -999
2007-05-22 08:20:23 51°13.966 2°52.681 -999 -999 -999 -999 -999
2007-05-22 08:20:28 51°13.974 2°52.704 -999 -999 -999 -999 -999
2007-05-22 08:20:33 51°13.983 2°52.727 -999 -999 -999 -999 -999
2007-05-22 08:20:38 51°13.991 2°52.75 -999 -999 -999 -999 -999
2007-05-22 08:20:43 51°13.999 2°52.773 -999 -999 -999 -999 -999
2007-05-22 08:20:48 51°14.007 2°52.797 -999 -999 -999 -999 -999
2007-05-22 08:20:53 51°14.016 2°52.82 -999 -999 -999 -999 -999
2007-05-22 08:20:58 51°14.024 2°52.843 -999 -999 -999 -999 -999
2007-05-22 08:21:03 51°14.032 2°52.866 -999 -999 -999 -999 -999
2007-05-22 08:21:08 51°14.04 2°52.889 -999 -999 -999 -999 -999
2007-05-22 08:21:13 51°14.048 2°52.913 -999 -999 -999 -999 -999
2007-05-22 08:21:18 51°14.056 2°52.936 -999 -999 -999 -999 -999
2007-05-22 08:21:23 51°14.065 2°52.959 -999 -999 -999 -999 -999
2007-05-22 08:21:28 51°14.073 2°52.982 -999 -999 -999 -999 -999
2007-05-22 08:21:33 51°14.082 2°53.005 -999 -999 -999 -999 -999
2007-05-22 08:21:38 51°14.09 2°53.028 -999 -999 -999 -999 -999
2007-05-22 08:21:43 51°14.099 2°53.051 -999 -999 -999 -999 -999
2007-05-22 08:21:48 51°14.107 2°53.074 -999 -999 -999 -999 -999
2007-05-22 08:21:53 51°14.115 2°53.098 -999 -999 -999 -999 -999
2007-05-22 08:21:58 51°14.124 2°53.121 -999 -999 -999 -999 -999
2007-05-22 08:22:03 51°14.133 2°53.144 -999 -999 -999 -999 -999
2007-05-22 08:22:08 51°14.141 2°53.166 -999 -999 -999 -999 -999
2007-05-22 08:22:13 51°14.149 2°53.19 -999 -999 -999 -999 -999
2007-05-22 08:22:18 51°14.158 2°53.212 -999 -999 -999 -999 -999
2007-05-22 08:22:23 51°14.166 2°53.235 -999 -999 -999 -999 -999
2007-05-22 08:22:28 51°14.174 2°53.258 -999 -999 -999 -999 -999
2007-05-22 08:22:33 51°14.184 2°53.28 -999 -999 -999 -999 -999
2007-05-22 08:22:38 51°14.193 2°53.302 -999 -999 -999 -999 -999
2007-05-22 08:22:43 51°14.203 2°53.323 -999 -999 -999 -999 -999
2007-05-22 08:22:48 51°14.213 2°53.344 -999 -999 -999 -999 -999
2007-05-22 08:22:53 51°14.223 2°53.364 -999 -999 -999 -999 -999
2007-05-22 08:22:58 51°14.234 2°53.384 -999 -999 -999 -999 -999
2007-05-22 08:23:03 51°14.246 2°53.403 -999 -999 -999 -999 -999
2007-05-22 08:23:08 51°14.258 2°53.421 -999 -999 -999 -999 -999
2007-05-22 08:23:13 51°14.27 2°53.439 -999 -999 -999 -999 -999
2007-05-22 08:23:18 51°14.283 2°53.455 -999 -999 -999 -999 -999
2007-05-22 08:23:23 51°14.296 2°53.472 -999 -999 -999 -999 -999
2007-05-22 08:23:28 51°14.309 2°53.487 -999 -999 -999 -999 -999
2007-05-22 08:23:33 51°14.323 2°53.501 -999 -999 -999 -999 -999
2007-05-22 08:23:38 51°14.337 2°53.514 -999 -999 -999 -999 -999
2007-05-22 08:23:43 51°14.352 2°53.527 -999 -999 -999 -999 -999
2007-05-22 08:23:48 51°14.367 2°53.539 -999 -999 -999 -999 -999
2007-05-22 08:23:53 51°14.382 2°53.551 -999 -999 -999 -999 -999
2007-05-22 08:23:58 51°14.397 2°53.563 -999 -999 -999 -999 -999
2007-05-22 08:24:03 51°14.412 2°53.575 -999 -999 -999 -999 -999
2007-05-22 08:24:08 51°14.427 2°53.586 -999 -999 -999 -999 -999
2007-05-22 08:24:13 51°14.442 2°53.598 -999 -999 -999 -999 -999
2007-05-22 08:24:18 51°14.457 2°53.609 -999 -999 -999 -999 -999
2007-05-22 08:24:23 51°14.473 2°53.621 -999 -999 -999 -999 -999
2007-05-22 08:24:28 51°14.488 2°53.633 -999 -999 -999 -999 -999
2007-05-22 08:24:33 51°14.503 2°53.645 -999 -999 -999 -999 -999
2007-05-22 08:24:38 51°14.518 2°53.658 -999 -999 -999 -999 -999
2007-05-22 08:24:43 51°14.532 2°53.67 -999 -999 -999 -999 -999
2007-05-22 08:24:48 51°14.547 2°53.682 -999 -999 -999 -999 -999
2007-05-22 08:24:53 51°14.562 2°53.695 -999 -999 -999 -999 -999
2007-05-22 08:24:58 51°14.577 2°53.707 -999 -999 -999 -999 -999
2007-05-22 08:25:03 51°14.592 2°53.72 -999 -999 -999 -999 -999
2007-05-22 08:25:08 51°14.607 2°53.731 -999 -999 -999 -999 -999
2007-05-22 08:25:13 51°14.622 2°53.744 -999 -999 -999 -999 -999
2007-05-22 08:25:18 51°14.637 2°53.756 -999 -999 -999 -999 -999
2007-05-22 08:25:23 51°14.652 2°53.768 -999 -999 -999 -999 -999
2007-05-22 08:25:28 51°14.668 2°53.781 -999 -999 -999 -999 -999
2007-05-22 08:25:33 51°14.683 2°53.793 -999 -999 -999 -999 -999
2007-05-22 08:25:38 51°14.699 2°53.804 -999 -999 -999 -999 -999
2007-05-22 08:25:43 51°14.715 2°53.814 -999 -999 -999 -999 -999
2007-05-22 08:25:48 51°14.731 2°53.823 -999 -999 -999 -999 -999
2007-05-22 08:25:53 51°14.748 2°53.832 -999 -999 -999 -999 -999
2007-05-22 08:25:58 51°14.764 2°53.84 -999 -999 -999 -999 -999
2007-05-22 08:26:03 51°14.781 2°53.845 -999 -999 -999 -999 -999
2007-05-22 08:26:08 51°14.798 2°53.849 -999 -999 -999 -999 -999
2007-05-22 08:26:13 51°14.814 2°53.851 -999 -999 -999 -999 -999
2007-05-22 08:26:18 51°14.831 2°53.85 -999 -999 -999 -999 -999
2007-05-22 08:26:23 51°14.848 2°53.846 -999 -999 -999 -999 -999
2007-05-22 08:26:28 51°14.865 2°53.84 -999 -999 -999 -999 -999
2007-05-22 08:26:33 51°14.88 2°53.83 -999 -999 -999 -999 -999
2007-05-22 08:26:38 51°14.896 2°53.82 -999 -999 -999 -999 -999
2007-05-22 08:26:43 51°14.911 2°53.806 -999 -999 -999 -999 -999
2007-05-22 08:26:48 51°14.925 2°53.79 -999 -999 -999 -999 -999
2007-05-22 08:26:53 51°14.94 2°53.773 -999 -999 -999 -999 -999
2007-05-22 08:26:58 51°14.953 2°53.756 -999 -999 -999 -999 -999
2007-05-22 08:27:03 51°14.966 2°53.736 -999 -999 -999 -999 -999
2007-05-22 08:27:08 51°14.979 2°53.717 -999 -999 -999 -999 -999
2007-05-22 08:27:13 51°14.991 2°53.695 -999 -999 -999 -999 -999
2007-05-22 08:27:18 51°15.001 2°53.671 -999 -999 -999 -999 -999
2007-05-22 08:27:23 51°15.01 2°53.647 -999 -999 -999 -999 -999
2007-05-22 08:27:28 51°15.019 2°53.622 -999 -999 -999 -999 -999
2007-05-22 08:27:33 51°15.028 2°53.596 -999 -999 -999 -999 -999
2007-05-22 08:27:38 51°15.036 2°53.57 -999 -999 -999 -999 -999
2007-05-22 08:27:43 51°15.043 2°53.543 -999 -999 -999 -999 -999
2007-05-22 08:27:48 51°15.048 2°53.515 -999 -999 -999 -999 -999
2007-05-22 08:27:53 51°15.051 2°53.487 -999 -999 -999 -999 -999
2007-05-22 08:27:58 51°15.052 2°53.458 -999 -999 -999 -999 -999
2007-05-22 08:28:03 51°15.051 2°53.429 -999 -999 -999 -999 -999
2007-05-22 08:28:08 51°15.049 2°53.4 -999 -999 -999 -999 -999
2007-05-22 08:28:13 51°15.047 2°53.371 -999 -999 -999 -999 -999
2007-05-22 08:28:18 51°15.043 2°53.342 -999 -999 -999 -999 -999
2007-05-22 08:28:23 51°15.039 2°53.313 -999 -999 -999 -999 -999
2007-05-22 08:28:28 51°15.034 2°53.285 -999 -999 -999 -999 -999
2007-05-22 08:28:33 51°15.03 2°53.256 -999 -999 -999 -999 -999
2007-05-22 08:28:38 51°15.025 2°53.227 -999 -999 -999 -999 -999
2007-05-22 08:28:43 51°15.02 2°53.198 -999 -999 -999 -999 -999
2007-05-22 08:28:48 51°15.015 2°53.169 -999 -999 -999 -999 -999
2007-05-22 08:28:53 51°15.011 2°53.14 -999 -999 -999 -999 -999
2007-05-22 08:28:58 51°15.007 2°53.11 -999 -999 -999 -999 -999
2007-05-22 08:29:03 51°15.003 2°53.081 -999 -999 -999 -999 -999
2007-05-22 08:29:08 51°14.999 2°53.051 -999 -999 -999 -999 -999
2007-05-22 08:29:13 51°14.996 2°53.022 -999 -999 -999 -999 -999
2007-05-22 08:29:18 51°14.992 2°52.992 -999 -999 -999 -999 -999
2007-05-22 08:29:23 51°14.989 2°52.962 -999 -999 -999 -999 -999
2007-05-22 08:29:28 51°14.985 2°52.932 -999 -999 -999 -999 -999
2007-05-22 08:29:33 51°14.982 2°52.902 -999 -999 -999 -999 -999
2007-05-22 08:29:38 51°14.978 2°52.873 -999 -999 -999 -999 -999
2007-05-22 08:29:43 51°14.975 2°52.843 -999 -999 -999 -999 -999
2007-05-22 08:29:48 51°14.971 2°52.814 -999 -999 -999 -999 -999
2007-05-22 08:29:53 51°14.967 2°52.784 -999 -999 -999 -999 -999
2007-05-22 08:29:58 51°14.963 2°52.755 -999 -999 -999 -999 -999
2007-05-22 08:30:03 51°14.959 2°52.725 -999 -999 -999 -999 -999
2007-05-22 08:30:08 51°14.955 2°52.695 -999 -999 -999 -999 -999
2007-05-22 08:30:13 51°14.951 2°52.665 -999 -999 -999 -999 -999
2007-05-22 08:30:18 51°14.947 2°52.636 -999 -999 -999 -999 -999
2007-05-22 08:30:23 51°14.942 2°52.606 -999 -999 -999 -999 -999
2007-05-22 08:30:28 51°14.939 2°52.576 -999 -999 -999 -999 -999
2007-05-22 08:30:33 51°14.934 2°52.546 -999 -999 -999 -999 -999
2007-05-22 08:30:38 51°14.931 2°52.517 -999 -999 -999 -999 -999
2007-05-22 08:30:43 51°14.927 2°52.487 -999 -999 -999 -999 -999
2007-05-22 08:30:48 51°14.923 2°52.457 -999 -999 -999 -999 -999
2007-05-22 08:30:53 51°14.919 2°52.427 -999 -999 -999 -999 -999
2007-05-22 08:30:58 51°14.915 2°52.396 -999 -999 -999 -999 -999
2007-05-22 08:31:03 51°14.911 2°52.366 -999 -999 -999 -999 -999
2007-05-22 08:31:08 51°14.907 2°52.336 -999 -999 -999 -999 -999
2007-05-22 08:31:13 51°14.902 2°52.306 -999 -999 -999 -999 -999
2007-05-22 08:31:18 51°14.898 2°52.276 -999 -999 -999 -999 -999
2007-05-22 08:31:23 51°14.894 2°52.246 -999 -999 -999 -999 -999
2007-05-22 08:31:28 51°14.89 2°52.216 -999 -999 -999 -999 -999
2007-05-22 08:31:33 51°14.886 2°52.186 -999 -999 -999 -999 -999
2007-05-22 08:31:38 51°14.881 2°52.155 -999 -999 -999 -999 -999
2007-05-22 08:31:43 51°14.877 2°52.125 -999 -999 -999 -999 -999
2007-05-22 08:31:48 51°14.873 2°52.095 -999 -999 -999 -999 -999
2007-05-22 08:31:53 51°14.869 2°52.065 -999 -999 -999 -999 -999
2007-05-22 08:31:58 51°14.865 2°52.035 -999 -999 -999 -999 -999
2007-05-22 08:32:03 51°14.861 2°52.004 -999 -999 -999 -999 -999
2007-05-22 08:32:08 51°14.857 2°51.974 -999 -999 -999 -999 -999
2007-05-22 08:32:13 51°14.853 2°51.944 -999 -999 -999 -999 -999
2007-05-22 08:32:18 51°14.849 2°51.914 -999 -999 -999 -999 -999
2007-05-22 08:32:23 51°14.845 2°51.884 -999 -999 -999 -999 -999
2007-05-22 08:32:28 51°14.841 2°51.854 -999 -999 -999 -999 -999
2007-05-22 08:32:33 51°14.837 2°51.823 -999 -999 -999 -999 -999
2007-05-22 08:32:38 51°14.832 2°51.793 -999 -999 -999 -999 -999
2007-05-22 08:32:43 51°14.828 2°51.763 -999 -999 -999 -999 -999
2007-05-22 08:32:48 51°14.823 2°51.734 -999 -999 -999 -999 -999
2007-05-22 08:32:53 51°14.819 2°51.704 -999 -999 -999 -999 -999
2007-05-22 08:32:58 51°14.815 2°51.675 -999 -999 -999 -999 -999
2007-05-22 08:33:03 51°14.811 2°51.647 -999 -999 -999 -999 -999
2007-05-22 08:33:08 51°14.808 2°51.62 -999 -999 -999 -999 -999
2007-05-22 08:33:13 51°14.804 2°51.593 -999 -999 -999 -999 -999
2007-05-22 08:33:18 51°14.801 2°51.567 -999 -999 -999 -999 -999
2007-05-22 08:33:23 51°14.797 2°51.542 -999 -999 -999 -999 -999
2007-05-22 08:33:28 51°14.794 2°51.517 -999 -999 -999 -999 -999
2007-05-22 08:33:33 51°14.79 2°51.494 -999 -999 -999 -999 -999
2007-05-22 08:33:38 51°14.787 2°51.471 -999 -999 -999 -999 -999
2007-05-22 08:33:43 51°14.784 2°51.449 -999 -999 -999 -999 -999
2007-05-22 08:33:48 51°14.781 2°51.428 -999 -999 -999 -999 -999
2007-05-22 08:33:53 51°14.778 2°51.407 -999 -999 -999 -999 -999
2007-05-22 08:33:58 51°14.775 2°51.386 -999 -999 -999 -999 -999
2007-05-22 08:34:03 51°14.772 2°51.366 -999 -999 -999 -999 -999
2007-05-22 08:34:08 51°14.769 2°51.347 -999 -999 -999 -999 -999
2007-05-22 08:34:13 51°14.766 2°51.328 -999 -999 -999 -999 -999
2007-05-22 08:34:18 51°14.764 2°51.309 -999 -999 -999 -999 -999
2007-05-22 08:34:23 51°14.761 2°51.29 -999 -999 -999 -999 -999
2007-05-22 08:34:28 51°14.758 2°51.272 -999 -999 -999 -999 -999
2007-05-22 08:34:33 51°14.755 2°51.255 -999 -999 -999 -999 -999
2007-05-22 08:34:38 51°14.753 2°51.239 -999 -999 -999 -999 -999
2007-05-22 08:34:43 51°14.75 2°51.223 -999 -999 -999 -999 -999
2007-05-22 08:34:48 51°14.748 2°51.207 -999 -999 -999 -999 -999
2007-05-22 08:34:53 51°14.746 2°51.192 -999 -999 -999 -999 -999
2007-05-22 08:34:58 51°14.743 2°51.178 -999 -999 -999 -999 -999
2007-05-22 08:35:03 51°14.741 2°51.164 -999 -999 -999 -999 -999
2007-05-22 08:35:08 51°14.739 2°51.151 -999 -999 -999 -999 -999
2007-05-22 08:35:13 51°14.737 2°51.138 -999 -999 -999 -999 -999
2007-05-22 08:35:18 51°14.736 2°51.125 -999 -999 -999 -999 -999
2007-05-22 08:35:23 51°14.734 2°51.112 -999 -999 -999 -999 -999
2007-05-22 08:35:28 51°14.732 2°51.1 -999 -999 -999 -999 -999
2007-05-22 08:35:33 51°14.73 2°51.089 -999 -999 -999 -999 -999
2007-05-22 08:35:38 51°14.729 2°51.077 -999 -999 -999 -999 -999
2007-05-22 08:35:43 51°14.728 2°51.066 -999 -999 -999 -999 -999
2007-05-22 08:35:48 51°14.726 2°51.055 -999 -999 -999 -999 -999
2007-05-22 08:35:53 51°14.725 2°51.045 -999 -999 -999 -999 -999
2007-05-22 08:35:58 51°14.724 2°51.034 -999 -999 -999 -999 -999
2007-05-22 08:36:03 51°14.723 2°51.025 -999 -999 -999 -999 -999
2007-05-22 08:36:08 51°14.722 2°51.016 -999 -999 -999 -999 -999
2007-05-22 08:36:13 51°14.722 2°51.007 -999 -999 -999 -999 -999
2007-05-22 08:36:18 51°14.721 2°50.999 -999 -999 -999 -999 -999
2007-05-22 08:36:23 51°14.721 2°50.991 -999 -999 -999 -999 -999
2007-05-22 08:36:28 51°14.72 2°50.984 -999 -999 -999 -999 -999
2007-05-22 08:36:33 51°14.72 2°50.978 -999 -999 -999 -999 -999
2007-05-22 08:36:38 51°14.72 2°50.972 -999 -999 -999 -999 -999
2007-05-22 08:36:43 51°14.719 2°50.966 -999 -999 -999 -999 -999
2007-05-22 08:36:48 51°14.719 2°50.961 -999 -999 -999 -999 -999
2007-05-22 08:36:53 51°14.718 2°50.956 -999 -999 -999 -999 -999
2007-05-22 08:36:58 51°14.718 2°50.951 -999 -999 -999 -999 -999
2007-05-22 08:37:03 51°14.717 2°50.947 -999 -999 -999 -999 -999
2007-05-22 08:37:08 51°14.716 2°50.943 -999 -999 -999 -999 -999
2007-05-22 08:37:13 51°14.716 2°50.939 -999 -999 -999 -999 -999
2007-05-22 08:37:18 51°14.715 2°50.935 -999 -999 -999 -999 -999
2007-05-22 08:37:23 51°14.714 2°50.932 -999 -999 -999 -999 -999
2007-05-22 08:37:28 51°14.713 2°50.929 -999 -999 -999 -999 -999
2007-05-22 08:37:33 51°14.713 2°50.926 -999 -999 -999 -999 -999
2007-05-22 08:37:38 51°14.712 2°50.924 -999 -999 -999 -999 -999
2007-05-22 08:37:43 51°14.711 2°50.921 -999 -999 -999 -999 -999
2007-05-22 08:37:48 51°14.71 2°50.919 -999 -999 -999 -999 -999
2007-05-22 08:37:53 51°14.709 2°50.917 -999 -999 -999 -999 -999
2007-05-22 08:37:58 51°14.708 2°50.916 -999 -999 -999 -999 -999
2007-05-22 08:38:03 51°14.706 2°50.914 -999 -999 -999 -999 -999
2007-05-22 08:38:08 51°14.706 2°50.912 -999 -999 -999 -999 -999
2007-05-22 08:38:13 51°14.704 2°50.91 -999 -999 -999 -999 -999
2007-05-22 08:38:18 51°14.703 2°50.908 -999 -999 -999 -999 -999
2007-05-22 08:38:23 51°14.702 2°50.907 -999 -999 -999 -999 -999
2007-05-22 08:38:28 51°14.701 2°50.905 -999 -999 -999 -999 -999
2007-05-22 08:38:33 51°14.7 2°50.903 -999 -999 -999 -999 -999
2007-05-22 08:38:38 51°14.699 2°50.901 -999 -999 -999 -999 -999
2007-05-22 08:38:43 51°14.698 2°50.9 -999 -999 -999 -999 -999
2007-05-22 08:38:48 51°14.697 2°50.898 -999 -999 -999 -999 -999
2007-05-22 08:38:53 51°14.696 2°50.896 -999 -999 -999 -999 -999
2007-05-22 08:38:58 51°14.695 2°50.894 -999 -999 -999 -999 -999
2007-05-22 08:39:03 51°14.693 2°50.893 -999 -999 -999 -999 -999
2007-05-22 08:39:08 51°14.692 2°50.891 -999 -999 -999 -999 -999
2007-05-22 08:39:13 51°14.691 2°50.889 -999 -999 -999 -999 -999
2007-05-22 08:39:18 51°14.69 2°50.888 -999 -999 -999 -999 -999
2007-05-22 08:39:23 51°14.689 2°50.886 -999 -999 -999 -999 -999
2007-05-22 08:39:28 51°14.688 2°50.884 -999 -999 -999 -999 -999
2007-05-22 08:39:33 51°14.687 2°50.882 -999 -999 -999 -999 -999
2007-05-22 08:39:38 51°14.686 2°50.88 -999 -999 -999 -999 -999
2007-05-22 08:39:43 51°14.685 2°50.879 -999 -999 -999 -999 -999
2007-05-22 08:39:48 51°14.684 2°50.877 -999 -999 -999 -999 -999
2007-05-22 08:39:53 51°14.683 2°50.875 -999 -999 -999 -999 -999
2007-05-22 08:39:58 51°14.682 2°50.873 -999 -999 -999 -999 -999
2007-05-22 08:40:03 51°14.681 2°50.871 -999 -999 -999 -999 -999
2007-05-22 08:40:08 51°14.68 2°50.869 -999 -999 -999 -999 -999
2007-05-22 08:40:13 51°14.679 2°50.867 -999 -999 -999 -999 -999
2007-05-22 08:40:18 51°14.677 2°50.865 -999 -999 -999 -999 -999
2007-05-22 08:40:23 51°14.676 2°50.863 -999 -999 -999 -999 -999
2007-05-22 08:40:28 51°14.675 2°50.861 -999 -999 -999 -999 -999
2007-05-22 08:40:33 51°14.674 2°50.859 -999 -999 -999 -999 -999
2007-05-22 08:40:38 51°14.673 2°50.858 -999 -999 -999 -999 -999
2007-05-22 08:40:43 51°14.672 2°50.856 -999 -999 -999 -999 -999
2007-05-22 08:40:48 51°14.671 2°50.853 -999 -999 -999 -999 -999
2007-05-22 08:40:53 51°14.67 2°50.852 -999 -999 -999 -999 -999
2007-05-22 08:40:58 51°14.669 2°50.85 -999 -999 -999 -999 -999
2007-05-22 08:41:03 51°14.667 2°50.848 -999 -999 -999 -999 -999
2007-05-22 08:41:08 51°14.666 2°50.846 -999 -999 -999 -999 -999
2007-05-22 08:41:13 51°14.665 2°50.844 -999 -999 -999 -999 -999
2007-05-22 08:41:18 51°14.664 2°50.842 -999 -999 -999 -999 -999
2007-05-22 08:41:23 51°14.663 2°50.84 -999 -999 -999 -999 -999
2007-05-22 08:41:28 51°14.662 2°50.838 -999 -999 -999 -999 -999
2007-05-22 08:41:33 51°14.66 2°50.836 -999 -999 -999 -999 -999
2007-05-22 08:41:38 51°14.659 2°50.834 -999 -999 -999 -999 -999
2007-05-22 08:41:43 51°14.658 2°50.832 -999 -999 -999 -999 -999
2007-05-22 08:41:48 51°14.657 2°50.83 -999 -999 -999 -999 -999
2007-05-22 08:41:53 51°14.655 2°50.828 -999 -999 -999 -999 -999
2007-05-22 08:41:58 51°14.654 2°50.826 -999 -999 -999 -999 -999
2007-05-22 08:42:03 51°14.653 2°50.824 -999 -999 -999 -999 -999
2007-05-22 08:42:08 51°14.652 2°50.822 -999 -999 -999 -999 -999
2007-05-22 08:42:13 51°14.65 2°50.82 -999 -999 -999 -999 -999
2007-05-22 08:42:18 51°14.649 2°50.818 -999 -999 -999 -999 -999
2007-05-22 08:42:23 51°14.648 2°50.816 -999 -999 -999 -999 -999
2007-05-22 08:42:28 51°14.646 2°50.814 -999 -999 -999 -999 -999
2007-05-22 08:42:33 51°14.645 2°50.812 -999 -999 -999 -999 -999
2007-05-22 08:42:38 51°14.644 2°50.811 -999 -999 -999 -999 -999
2007-05-22 08:42:43 51°14.643 2°50.809 -999 -999 -999 -999 -999
2007-05-22 08:42:48 51°14.642 2°50.807 -999 -999 -999 -999 -999
2007-05-22 08:42:53 51°14.64 2°50.805 -999 -999 -999 -999 -999
2007-05-22 08:42:58 51°14.639 2°50.803 -999 -999 -999 -999 -999
2007-05-22 08:43:03 51°14.638 2°50.801 -999 -999 -999 -999 -999
2007-05-22 08:43:08 51°14.637 2°50.799 -999 -999 -999 -999 -999
2007-05-22 08:43:13 51°14.635 2°50.797 -999 -999 -999 -999 -999
2007-05-22 08:43:18 51°14.634 2°50.794 -999 -999 -999 -999 -999
2007-05-22 08:43:23 51°14.632 2°50.792 -999 -999 -999 -999 -999
2007-05-22 08:43:28 51°14.631 2°50.789 -999 -999 -999 -999 -999
2007-05-22 08:43:33 51°14.629 2°50.786 -999 -999 -999 -999 -999
2007-05-22 08:43:38 51°14.627 2°50.783 -999 -999 -999 -999 -999
2007-05-22 08:43:43 51°14.624 2°50.779 -999 -999 -999 -999 -999
2007-05-22 08:43:48 51°14.622 2°50.775 -999 -999 -999 -999 -999
2007-05-22 08:43:53 51°14.62 2°50.771 -999 -999 -999 -999 -999
2007-05-22 08:43:58 51°14.617 2°50.766 -999 -999 -999 -999 -999
2007-05-22 08:44:03 51°14.614 2°50.761 -999 -999 -999 -999 -999
2007-05-22 08:44:08 51°14.612 2°50.755 -999 -999 -999 -999 -999
2007-05-22 08:44:13 51°14.609 2°50.749 -999 -999 -999 -999 -999
2007-05-22 08:44:18 51°14.606 2°50.743 -999 -999 -999 -999 -999
2007-05-22 08:44:23 51°14.604 2°50.737 -999 -999 -999 -999 -999
2007-05-22 08:44:28 51°14.601 2°50.73 -999 -999 -999 -999 -999
2007-05-22 08:44:33 51°14.598 2°50.723 -999 -999 -999 -999 -999
2007-05-22 08:44:38 51°14.596 2°50.716 -999 -999 -999 -999 -999
2007-05-22 08:44:43 51°14.593 2°50.709 -999 -999 -999 -999 -999
2007-05-22 08:44:48 51°14.591 2°50.702 -999 -999 -999 -999 -999
2007-05-22 08:44:53 51°14.589 2°50.696 -999 -999 -999 -999 -999
2007-05-22 08:44:58 51°14.587 2°50.689 -999 -999 -999 -999 -999
2007-05-22 08:45:03 51°14.585 2°50.682 -999 -999 -999 -999 -999
2007-05-22 08:45:08 51°14.583 2°50.676 -999 -999 -999 -999 -999
2007-05-22 08:45:13 51°14.581 2°50.67 -999 -999 -999 -999 -999
2007-05-22 08:45:18 51°14.579 2°50.664 -999 -999 -999 -999 -999
2007-05-22 08:45:23 51°14.577 2°50.657 -999 -999 -999 -999 -999
2007-05-22 08:45:28 51°14.576 2°50.651 -999 -999 -999 -999 -999
2007-05-22 08:45:33 51°14.574 2°50.645 -999 -999 -999 -999 -999
2007-05-22 08:45:38 51°14.572 2°50.64 -999 -999 -999 -999 -999
2007-05-22 08:45:43 51°14.57 2°50.634 -999 -999 -999 -999 -999
2007-05-22 08:45:48 51°14.569 2°50.628 -999 -999 -999 -999 -999
2007-05-22 08:45:53 51°14.567 2°50.622 -999 -999 -999 -999 -999
2007-05-22 08:45:58 51°14.565 2°50.617 -999 -999 -999 -999 -999
2007-05-22 08:46:03 51°14.564 2°50.611 -999 -999 -999 -999 -999
2007-05-22 08:46:08 51°14.562 2°50.606 -999 -999 -999 -999 -999
2007-05-22 08:46:13 51°14.561 2°50.601 -999 -999 -999 -999 -999
2007-05-22 08:46:18 51°14.559 2°50.595 -999 -999 -999 -999 -999
2007-05-22 08:46:23 51°14.558 2°50.59 -999 -999 -999 -999 -999
2007-05-22 08:46:28 51°14.556 2°50.585 -999 -999 -999 -999 -999
2007-05-22 08:46:33 51°14.554 2°50.578 -999 -999 -999 -999 -999
2007-05-22 08:46:38 51°14.553 2°50.571 -999 -999 -999 -999 -999
2007-05-22 08:46:43 51°14.551 2°50.563 -999 -999 -999 -999 -999
2007-05-22 08:46:48 51°14.549 2°50.555 -999 -999 -999 -999 -999
2007-05-22 08:46:53 51°14.548 2°50.546 -999 -999 -999 -999 -999
2007-05-22 08:46:58 51°14.547 2°50.536 -999 -999 -999 -999 -999
2007-05-22 08:47:03 51°14.546 2°50.526 -999 -999 -999 -999 -999
2007-05-22 08:47:08 51°14.546 2°50.517 -999 -999 -999 -999 -999
2007-05-22 08:47:13 51°14.546 2°50.508 -999 -999 -999 -999 -999
2007-05-22 08:47:18 51°14.546 2°50.499 -999 -999 -999 -999 -999
2007-05-22 08:47:23 51°14.547 2°50.49 -999 -999 -999 -999 -999
2007-05-22 08:47:28 51°14.547 2°50.482 -999 -999 -999 -999 -999
2007-05-22 08:47:33 51°14.548 2°50.475 -999 -999 -999 -999 -999
2007-05-22 08:47:38 51°14.549 2°50.467 -999 -999 -999 -999 -999
2007-05-22 08:47:43 51°14.55 2°50.46 -999 -999 -999 -999 -999
2007-05-22 08:47:48 51°14.551 2°50.452 -999 -999 -999 -999 -999
2007-05-22 08:47:53 51°14.553 2°50.444 -999 -999 -999 -999 -999
2007-05-22 08:47:58 51°14.555 2°50.437 -999 -999 -999 -999 -999
2007-05-22 08:48:03 51°14.557 2°50.43 -999 -999 -999 -999 -999
2007-05-22 08:48:08 51°14.56 2°50.422 -999 -999 -999 -999 -999
2007-05-22 08:48:13 51°14.563 2°50.415 -999 -999 -999 -999 -999
2007-05-22 08:48:18 51°14.566 2°50.409 -999 -999 -999 -999 -999
2007-05-22 08:48:23 51°14.569 2°50.403 -999 -999 -999 -999 -999
2007-05-22 08:48:28 51°14.572 2°50.397 -999 -999 -999 -999 -999
2007-05-22 08:48:33 51°14.576 2°50.391 -999 -999 -999 -999 -999
2007-05-22 08:48:38 51°14.58 2°50.386 -999 -999 -999 -999 -999
2007-05-22 08:48:43 51°14.584 2°50.382 -999 -999 -999 -999 -999
2007-05-22 08:48:48 51°14.589 2°50.378 -999 -999 -999 -999 -999
2007-05-22 08:48:53 51°14.594 2°50.375 -999 -999 -999 -999 -999
2007-05-22 08:48:58 51°14.598 2°50.373 -999 -999 -999 -999 -999
2007-05-22 08:49:03 51°14.603 2°50.372 -999 -999 -999 -999 -999
2007-05-22 08:49:08 51°14.608 2°50.371 -999 -999 -999 -999 -999
2007-05-22 08:49:13 51°14.614 2°50.371 -999 -999 -999 -999 -999
2007-05-22 08:49:18 51°14.619 2°50.373 -999 -999 -999 -999 -999
2007-05-22 08:49:23 51°14.623 2°50.375 -999 -999 -999 -999 -999
2007-05-22 08:49:28 51°14.628 2°50.378 -999 -999 -999 -999 -999
2007-05-22 08:49:33 51°14.632 2°50.381 -999 -999 -999 -999 -999
2007-05-22 08:49:38 51°14.635 2°50.385 -999 -999 -999 -999 -999
2007-05-22 08:49:43 51°14.639 2°50.389 -999 -999 -999 -999 -999
2007-05-22 08:49:48 51°14.642 2°50.394 -999 -999 -999 -999 -999
2007-05-22 08:49:53 51°14.644 2°50.399 -999 -999 -999 -999 -999
2007-05-22 08:49:58 51°14.646 2°50.404 -999 -999 -999 -999 -999
2007-05-22 08:50:03 51°14.648 2°50.41 -999 -999 -999 -999 -999
2007-05-22 08:50:08 51°14.649 2°50.415 -999 -999 -999 -999 -999
2007-05-22 08:50:13 51°14.649 2°50.421 -999 -999 -999 -999 -999
2007-05-22 08:50:18 51°14.649 2°50.427 -999 -999 -999 -999 -999
2007-05-22 08:50:23 51°14.648 2°50.432 -999 -999 -999 -999 -999
2007-05-22 08:50:28 51°14.647 2°50.438 -999 -999 -999 -999 -999
2007-05-22 08:50:33 51°14.645 2°50.443 -999 -999 -999 -999 -999
2007-05-22 08:50:38 51°14.643 2°50.448 -999 -999 -999 -999 -999
2007-05-22 08:50:43 51°14.64 2°50.453 -999 -999 -999 -999 -999
2007-05-22 08:50:48 51°14.637 2°50.457 -999 -999 -999 -999 -999
2007-05-22 08:50:53 51°14.634 2°50.461 -999 -999 -999 -999 -999
2007-05-22 08:50:58 51°14.63 2°50.464 -999 -999 -999 -999 -999
2007-05-22 08:51:03 51°14.626 2°50.467 -999 -999 -999 -999 -999
2007-05-22 08:51:08 51°14.622 2°50.469 -999 -999 -999 -999 -999
2007-05-22 08:51:13 51°14.618 2°50.471 -999 -999 -999 -999 -999
2007-05-22 08:51:18 51°14.613 2°50.472 -999 -999 -999 -999 -999
2007-05-22 08:51:23 51°14.608 2°50.473 -999 -999 -999 -999 -999
2007-05-22 08:51:28 51°14.603 2°50.472 -999 -999 -999 -999 -999
2007-05-22 08:51:33 51°14.598 2°50.471 -999 -999 -999 -999 -999
2007-05-22 08:51:38 51°14.592 2°50.47 -999 -999 -999 -999 -999
2007-05-22 08:51:43 51°14.587 2°50.468 -999 -999 -999 -999 -999
2007-05-22 08:51:48 51°14.582 2°50.466 -999 -999 -999 -999 -999
2007-05-22 08:51:53 51°14.576 2°50.463 -999 -999 -999 -999 -999
2007-05-22 08:51:58 51°14.57 2°50.46 -999 -999 -999 -999 -999
2007-05-22 08:52:03 51°14.565 2°50.456 -999 -999 -999 -999 -999
2007-05-22 08:52:08 51°14.559 2°50.452 -999 -999 -999 -999 -999
2007-05-22 08:52:13 51°14.554 2°50.448 -999 -999 -999 -999 -999
2007-05-22 08:52:18 51°14.548 2°50.443 -999 -999 -999 -999 -999
2007-05-22 08:52:23 51°14.543 2°50.438 -999 -999 -999 -999 -999
2007-05-22 08:52:28 51°14.537 2°50.433 -999 -999 -999 -999 -999
2007-05-22 08:52:33 51°14.532 2°50.427 -999 -999 -999 -999 -999
2007-05-22 08:52:38 51°14.526 2°50.422 -999 -999 -999 -999 -999
2007-05-22 08:52:43 51°14.521 2°50.416 -999 -999 -999 -999 -999
2007-05-22 08:52:48 51°14.515 2°50.409 -999 -999 -999 -999 -999
2007-05-22 08:52:53 51°14.51 2°50.403 -999 -999 -999 -999 -999
2007-05-22 08:52:58 51°14.505 2°50.396 -999 -999 -999 -999 -999
2007-05-22 08:53:03 51°14.5 2°50.389 -999 -999 -999 -999 -999
2007-05-22 08:53:08 51°14.495 2°50.381 -999 -999 -999 -999 -999
2007-05-22 08:53:13 51°14.49 2°50.374 -999 -999 -999 -999 -999
2007-05-22 08:53:18 51°14.486 2°50.366 -999 -999 -999 -999 -999
2007-05-22 08:53:23 51°14.481 2°50.358 -999 -999 -999 -999 -999
2007-05-22 08:53:28 51°14.477 2°50.35 -999 -999 -999 -999 -999
2007-05-22 08:53:33 51°14.473 2°50.342 -999 -999 -999 -999 -999
2007-05-22 08:53:38 51°14.469 2°50.334 -999 -999 -999 -999 -999
2007-05-22 08:53:43 51°14.465 2°50.326 -999 -999 -999 -999 -999
2007-05-22 08:53:48 51°14.461 2°50.318 -999 -999 -999 -999 -999
2007-05-22 08:53:53 51°14.457 2°50.31 -999 -999 -999 -999 -999
2007-05-22 08:53:58 51°14.453 2°50.302 -999 -999 -999 -999 -999
2007-05-22 08:54:03 51°14.449 2°50.295 -999 -999 -999 -999 -999
2007-05-22 08:54:08 51°14.444 2°50.288 -999 -999 -999 -999 -999
2007-05-22 08:54:13 51°14.439 2°50.281 -999 -999 -999 -999 -999